Hutchinson, KS

2:28 AM CDT on June 25, 2017 (GMT -0500)
Hutchinson Municipal

Weather History for KHUT - March, 2013

Change the Weather History Date:

Friday, March 15, 2013

  Actual Average Record
Temperature  
Mean Temperature 62 °F -  
Max Temperature 87 °F 53 °F 87 °F (2013)
Min Temperature 39 °F 29 °F 19 °F (1997)
Degree Days  
Heating Degree Days 2    
Growing Degree Days 12 (Base 50)    
Moisture  
Dew Point 38 °F    
Average Humidity 49    
Maximum Humidity 83    
Minimum Humidity 13    
Precipitation  
Precipitation 0.00 in - - ()
Sea Level Pressure  
Sea Level Pressure 29.81 in    
Wind  
Wind Speed 4 mph (SW)    
Max Wind Speed 22 mph    
Max Gust Speed 24 mph    
Visibility 10 miles    
Events      
Averages and records for this station are not official NWS values.
T = Trace of Precipitation, MM = Missing Value Source: NWS Daily Summary

Daily Weather History Graph

Daily Weather History Graph

Search for Another Location

Airport or City:

Trip Planner

Search our weather history database for the weather conditions in past years. The results will help you decide how hot, cold, wet, or windy it might be!

Date:

Astronomy

Mar. 15, 2013 Rise Set
Actual Time 7:42 AM CDT 7:38 PM CDT
Civil Twilight 7:15 AM CDT 8:05 PM CDT
Nautical Twilight 6:45 AM CDT 8:35 PM CDT
Astronomical Twilight 6:14 AM CDT 9:06 PM CDT
Moon 9:37 AM CDT (3/15) 11:49 PM CDT (3/15)
Length of Visible Light 12h 49m
Length of Day
11h 56m
Waxing Crescent, 15% of the Moon is Illuminated
Mar 15
Waxing Crescent
Mar 19
First Quarter
Mar 27
Full
Apr 2
Last Quarter
Apr 10
New

Hourly Weather History & Observations

Time (CDT) Temp. Dew Point Humidity Pressure Visibility Wind Dir Wind Speed Gust Speed Precip Events Conditions
12:52 AM 44.1 °F 37.0 °F 76% 30.05 in 10.0 mi Calm Calm - N/A   Clear
2:52 AM 45.0 °F 37.9 °F 76% 30.00 in 10.0 mi Calm Calm - N/A   Clear
3:52 AM 39.9 °F 35.1 °F 83% 29.97 in 10.0 mi Calm Calm - N/A   Clear
4:52 AM 43.0 °F 37.0 °F 80% 29.94 in 10.0 mi Calm Calm - N/A   Clear
5:52 AM 41.0 °F 36.0 °F 82% 29.93 in 10.0 mi Calm Calm - N/A   Clear
6:52 AM 46.0 °F 37.9 °F 73% 29.92 in 10.0 mi Calm Calm - N/A   Clear
7:52 AM 48.9 °F 39.0 °F 69% 29.92 in 10.0 mi Calm Calm - N/A   Clear
8:52 AM 50.0 °F 41.0 °F 71% 29.92 in 10.0 mi Calm Calm - N/A   Clear
9:52 AM 59.0 °F 39.9 °F 49% 29.90 in 10.0 mi West 4.6 mph - N/A   Clear
10:52 AM 66.9 °F 39.0 °F 36% 29.87 in 10.0 mi WSW 8.1 mph - N/A   Clear
11:52 AM 75.0 °F 39.0 °F 27% 29.85 in 10.0 mi SW 6.9 mph - N/A   Clear
12:52 PM 80.1 °F 35.1 °F 20% 29.82 in 10.0 mi West 11.5 mph - N/A   Clear
1:52 PM 82.9 °F 30.9 °F 15% 29.78 in 10.0 mi SW 11.5 mph 19.6 mph N/A   Clear
2:52 PM 86.0 °F 30.0 °F 13% 29.73 in 10.0 mi SSW 16.1 mph 24.2 mph N/A   Clear
3:52 PM 84.9 °F 28.0 °F 13% 29.69 in 10.0 mi SW 15.0 mph - N/A   Clear
4:52 PM 84.9 °F 30.0 °F 14% 29.69 in 10.0 mi SW 16.1 mph 23.0 mph N/A   Clear
5:52 PM 81.0 °F 42.1 °F 25% 29.68 in 10.0 mi SSW 21.9 mph - N/A   Clear
6:52 PM 75.9 °F 44.1 °F 32% 29.68 in 10.0 mi SSW 8.1 mph - N/A   Clear
7:52 PM 70.0 °F 43.0 °F 38% 29.67 in 10.0 mi South 3.5 mph - N/A   Clear
8:52 PM 64.9 °F 43.0 °F 45% 29.68 in 10.0 mi SSE 3.5 mph - N/A   Clear
9:52 PM 57.0 °F 43.0 °F 59% 29.69 in 10.0 mi Calm Calm - N/A   Clear
10:52 PM 57.0 °F 45.0 °F 64% 29.68 in 10.0 mi Calm Calm - N/A   Clear
11:52 PM 57.0 °F 45.0 °F 64% 29.68 in 10.0 mi NW 3.5 mph - N/A   Clear